Time,TemperatureF,DewpointF,PressureIn,WindDirection,WindDirectionDegrees,WindSpeedMPH,WindSpeedGustMPH,Humidity,HourlyPrecipIn,Conditions,Clouds,dailyrainin,SoftwareType,DateUTC
2013-08-27 05:00:00,77.9,70.9,29.79,North,0,2.7,2.7,79,0.00,,,0.00,WUHU216HW,2013-08-27 10:00:00,
2013-08-27 05:05:00,77.9,70.9,29.79,North,0,2.7,2.7,79,0.00,,,0.00,WUHU216HW,2013-08-27 10:05:00,
2013-08-27 05:30:00,75.1,69.0,29.78,NE,45,2.0,2.0,81,0.00,,,0.00,WUHU216HW,2013-08-27 10:30:00,
2013-08-27 05:31:00,75.1,69.0,29.78,NE,45,2.0,2.0,81,0.00,,,0.00,WUHU216HW,2013-08-27 10:31:00,
2013-08-27 05:35:00,75.1,69.0,29.78,NE,45,2.0,2.0,81,0.00,,,0.00,WUHU216HW,2013-08-27 10:35:00,
2013-08-27 05:36:00,75.1,69.0,29.78,NE,45,2.0,2.0,81,0.00,,,0.00,WUHU216HW,2013-08-27 10:36:00,
2013-08-27 06:30:00,73.8,68.7,29.80,NNE,23,4.0,4.0,84,0.00,,,0.00,WUHU216HW,2013-08-27 11:30:00,
2013-08-27 06:35:00,73.8,68.7,29.80,NNE,23,4.0,4.0,84,0.00,,,0.00,WUHU216HW,2013-08-27 11:35:00,
2013-08-27 07:00:00,73.4,68.3,29.80,NE,45,2.2,2.2,84,0.00,,,0.00,WUHU216HW,2013-08-27 12:00:00,
2013-08-27 07:05:00,73.4,68.3,29.80,NE,45,2.2,2.2,84,0.00,,,0.00,WUHU216HW,2013-08-27 12:05:00,
2013-08-27 07:30:00,74.5,69.0,29.81,NE,45,2.5,2.5,83,0.00,,,0.00,WUHU216HW,2013-08-27 12:30:00,
2013-08-27 07:35:00,74.5,69.0,29.81,NE,45,2.5,2.5,83,0.00,,,0.00,WUHU216HW,2013-08-27 12:35:00,
2013-08-27 08:00:00,75.8,69.2,29.81,ENE,68,1.8,1.8,80,0.00,,,0.00,WUHU216HW,2013-08-27 13:00:00,
2013-08-27 08:05:00,76.0,69.4,29.81,East,90,0.4,2.7,80,0.00,,,0.00,WUHU216HW,2013-08-27 13:05:00,
2013-08-27 08:10:00,76.0,69.4,29.81,East,90,0.4,2.7,80,0.00,,,0.00,WUHU216HW,2013-08-27 13:10:00,
2013-08-27 08:33:00,81.7,71.8,29.81,SE,135,1.1,1.1,72,0.00,,,0.00,WUHU216HW,2013-08-27 13:33:00,
2013-08-27 08:34:00,81.9,72.0,29.81,SE,135,1.0,1.1,72,0.00,,,0.00,WUHU216HW,2013-08-27 13:34:00,
2013-08-27 08:38:00,81.4,71.1,29.81,NE,38,1.3,2.7,71,0.00,,,0.00,WUHU216HW,2013-08-27 13:38:00,
2013-08-27 08:39:00,81.4,71.1,29.81,NE,38,1.3,2.7,71,0.00,,,0.00,WUHU216HW,2013-08-27 13:39:00,
2013-08-27 08:44:00,81.4,71.1,29.81,East,90,1.3,2.7,71,0.00,,,0.00,WUHU216HW,2013-08-27 13:44:00,
2013-08-27 09:00:00,81.4,71.5,29.81,WNW,293,0.9,0.9,72,0.00,,,0.00,WUHU216HW,2013-08-27 14:00:00,
2013-08-27 09:05:00,81.4,71.5,29.81,WNW,293,0.9,0.9,72,0.00,,,0.00,WUHU216HW,2013-08-27 14:05:00,
2013-08-27 09:10:00,81.4,71.5,29.81,WNW,293,0.9,0.9,72,0.00,,,0.00,WUHU216HW,2013-08-27 14:10:00,
2013-08-27 10:00:00,84.2,73.4,29.81,NNW,338,1.3,1.3,70,0.00,,,0.00,WUHU216HW,2013-08-27 15:00:00,
2013-08-27 10:05:00,84.2,73.4,29.81,NNW,338,1.3,1.3,70,0.00,,,0.00,WUHU216HW,2013-08-27 15:05:00,
2013-08-27 11:00:00,79.6,70.9,29.83,NNW,338,6.7,6.7,75,0.00,,,0.00,WUHU216HW,2013-08-27 16:00:00,
2013-08-27 11:05:00,79.6,70.9,29.83,NNW,338,6.7,6.7,75,0.00,,,0.00,WUHU216HW,2013-08-27 16:05:00,
2013-08-27 11:30:00,78.5,70.3,29.84,NNE,23,11.0,11.0,76,0.00,,,0.00,WUHU216HW,2013-08-27 16:30:00,
2013-08-27 11:35:00,78.5,70.3,29.84,North,0,12.8,12.8,76,0.00,,,0.00,WUHU216HW,2013-08-27 16:35:00,
2013-08-27 11:36:00,78.5,70.3,29.84,North,0,12.8,12.8,76,0.00,,,0.00,WUHU216HW,2013-08-27 16:36:00,
2013-08-27 11:40:00,78.5,70.3,29.84,North,0,12.8,12.8,76,0.00,,,0.00,WUHU216HW,2013-08-27 16:40:00,
2013-08-27 11:41:00,78.5,70.3,29.84,North,0,12.8,12.8,76,0.00,,,0.00,WUHU216HW,2013-08-27 16:41:00,
2013-08-27 12:00:00,80.3,70.8,29.84,North,0,8.7,8.7,73,0.00,,,0.00,WUHU216HW,2013-08-27 17:00:00,
2013-08-27 12:05:00,80.3,70.8,29.84,North,0,7.6,8.7,73,0.00,,,0.00,WUHU216HW,2013-08-27 17:05:00,
2013-08-27 12:10:00,80.3,70.8,29.84,North,0,7.6,7.6,73,0.00,,,0.00,WUHU216HW,2013-08-27 17:10:00,
2013-08-27 12:30:00,82.4,72.5,29.84,NNE,23,5.4,5.4,72,0.00,,,0.00,WUHU216HW,2013-08-27 17:30:00,
2013-08-27 12:35:00,82.6,72.6,29.84,NNE,23,5.4,5.4,72,0.00,,,0.00,WUHU216HW,2013-08-27 17:35:00,
2013-08-27 12:36:00,82.6,72.6,29.84,NNE,23,5.4,5.4,72,0.00,,,0.00,WUHU216HW,2013-08-27 17:36:00,
2013-08-27 13:00:00,83.0,72.6,29.83,North,0,8.3,8.3,71,0.00,,,0.00,WUHU216HW,2013-08-27 18:00:00,
2013-08-27 13:05:00,83.0,72.6,29.83,North,0,8.7,8.7,71,0.00,,,0.00,WUHU216HW,2013-08-27 18:05:00,
2013-08-27 13:10:00,83.0,72.6,29.83,North,0,8.7,8.7,71,0.00,,,0.00,WUHU216HW,2013-08-27 18:10:00,
2013-08-27 13:30:00,84.8,73.1,29.83,North,0,4.9,4.9,68,0.00,,,0.00,WUHU216HW,2013-08-27 18:30:00,
2013-08-27 13:31:00,84.8,73.1,29.83,North,0,5.1,5.1,68,0.00,,,0.00,WUHU216HW,2013-08-27 18:31:00,
2013-08-27 13:35:00,84.8,73.1,29.83,North,0,5.1,5.1,68,0.00,,,0.00,WUHU216HW,2013-08-27 18:35:00,
2013-08-27 13:36:00,84.8,73.1,29.83,North,0,5.1,5.1,68,0.00,,,0.00,WUHU216HW,2013-08-27 18:36:00,
2013-08-27 14:00:00,88.0,73.9,29.83,North,0,9.4,9.4,63,0.00,,,0.00,WUHU216HW,2013-08-27 19:00:00,
2013-08-27 14:05:00,87.7,73.5,29.83,North,0,8.7,10.5,63,0.00,,,0.00,WUHU216HW,2013-08-27 19:05:00,
2013-08-27 14:10:00,87.7,73.5,29.83,North,0,8.7,8.7,63,0.00,,,0.00,WUHU216HW,2013-08-27 19:10:00,
2013-08-27 14:30:00,89.5,73.8,29.83,NNE,23,7.2,7.2,60,0.00,,,0.00,WUHU216HW,2013-08-27 19:30:00,
2013-08-27 14:35:00,89.5,73.3,29.83,NNE,23,7.2,7.2,59,0.00,,,0.00,WUHU216HW,2013-08-27 19:35:00,
2013-08-27 14:36:00,89.5,73.3,29.83,NNE,23,7.2,7.2,59,0.00,,,0.00,WUHU216HW,2013-08-27 19:36:00,
2013-08-27 14:40:00,89.5,73.3,29.83,NNE,23,7.2,7.2,59,0.00,,,0.00,WUHU216HW,2013-08-27 19:40:00,
2013-08-27 15:00:00,90.7,73.9,29.83,North,0,5.6,5.6,58,0.00,,,0.00,WUHU216HW,2013-08-27 20:00:00,
2013-08-27 15:05:00,90.7,74.4,29.82,NNE,23,3.8,5.6,59,0.00,,,0.00,WUHU216HW,2013-08-27 20:05:00,
2013-08-27 15:10:00,90.7,74.4,29.82,NNE,23,3.8,3.8,59,0.00,,,0.00,WUHU216HW,2013-08-27 20:10:00,
2013-08-27 15:30:00,91.6,74.2,29.83,NNE,23,8.9,8.9,57,0.00,,,0.00,WUHU216HW,2013-08-27 20:30:00,
2013-08-27 15:32:00,91.6,74.2,29.83,NNE,23,8.9,8.9,57,0.00,,,0.00,WUHU216HW,2013-08-27 20:32:00,
2013-08-27 15:35:00,91.6,74.2,29.83,NNE,23,8.9,8.9,57,0.00,,,0.00,WUHU216HW,2013-08-27 20:35:00,
2013-08-27 15:36:00,91.6,74.2,29.83,NNE,23,8.9,8.9,57,0.00,,,0.00,WUHU216HW,2013-08-27 20:36:00,
2013-08-27 15:38:00,91.6,74.2,29.83,NNE,23,8.9,8.9,57,0.00,,,0.00,WUHU216HW,2013-08-27 20:38:00,
2013-08-27 16:30:00,92.9,73.7,29.83,NE,45,6.5,6.5,54,0.00,,,0.00,WUHU216HW,2013-08-27 21:30:00,
2013-08-27 16:35:00,92.5,73.4,29.83,NE,45,12.5,13.9,54,0.00,,,0.00,WUHU216HW,2013-08-27 21:35:00,
2013-08-27 16:40:00,92.5,73.4,29.83,NE,45,12.5,13.9,54,0.00,,,0.00,WUHU216HW,2013-08-27 21:40:00,
2013-08-27 17:00:00,89.6,72.9,29.83,NE,45,11.4,11.4,58,0.00,,,0.00,WUHU216HW,2013-08-27 22:00:00,
2013-08-27 17:01:00,89.6,72.9,29.83,NNE,17,9.9,11.4,58,0.00,,,0.00,WUHU216HW,2013-08-27 22:01:00,
2013-08-27 17:05:00,89.6,72.9,29.83,North,0,9.2,11.4,58,0.00,,,0.00,WUHU216HW,2013-08-27 22:05:00,
2013-08-27 17:06:00,89.6,72.9,29.83,North,0,9.2,11.4,58,0.00,,,0.00,WUHU216HW,2013-08-27 22:06:00,
2013-08-27 17:10:00,89.6,72.9,29.83,North,0,9.2,9.2,58,0.00,,,0.00,WUHU216HW,2013-08-27 22:10:00,
2013-08-27 17:30:00,90.0,73.3,29.84,NE,45,8.1,8.1,58,0.00,,,0.00,WUHU216HW,2013-08-27 22:30:00,
2013-08-27 17:35:00,90.0,72.7,29.84,North,0,9.2,9.2,57,0.00,,,0.00,WUHU216HW,2013-08-27 22:35:00,
2013-08-27 17:36:00,90.0,72.7,29.84,North,0,9.2,9.2,57,0.00,,,0.00,WUHU216HW,2013-08-27 22:36:00,
2013-08-27 17:40:00,90.0,72.7,29.84,North,0,9.2,9.2,57,0.00,,,0.00,WUHU216HW,2013-08-27 22:40:00,
2013-08-27 18:00:00,89.3,72.5,29.84,North,0,7.6,7.6,58,0.00,,,0.00,WUHU216HW,2013-08-27 23:00:00,
2013-08-27 18:01:00,89.3,72.5,29.84,North,0,7.6,7.6,58,0.00,,,0.00,WUHU216HW,2013-08-27 23:01:00,
2013-08-27 18:05:00,89.3,72.5,29.84,North,0,7.6,7.6,58,0.00,,,0.00,WUHU216HW,2013-08-27 23:05:00,
2013-08-27 18:06:00,89.3,72.5,29.84,North,0,7.6,7.6,58,0.00,,,0.00,WUHU216HW,2013-08-27 23:06:00,
2013-08-27 18:10:00,89.3,72.5,29.84,North,0,7.6,7.6,58,0.00,,,0.00,WUHU216HW,2013-08-27 23:10:00,
2013-08-27 18:30:00,87.8,72.8,29.85,North,0,7.4,7.4,61,0.00,,,0.00,WUHU216HW,2013-08-27 23:30:00,
2013-08-27 18:35:00,87.7,72.6,29.85,NNE,23,10.5,12.8,61,0.00,,,0.00,WUHU216HW,2013-08-27 23:35:00,
2013-08-27 18:36:00,87.7,72.6,29.85,NNE,23,10.5,12.8,61,0.00,,,0.00,WUHU216HW,2013-08-27 23:36:00,
2013-08-27 18:40:00,87.7,72.6,29.85,NNE,23,10.5,10.5,61,0.00,,,0.00,WUHU216HW,2013-08-27 23:40:00,
2013-08-27 19:00:00,86.0,72.5,29.86,NE,45,5.4,5.4,64,0.00,,,0.00,WUHU216HW,2013-08-28 00:00:00,
2013-08-27 19:05:00,86.0,72.5,29.86,North,0,3.4,5.4,64,0.00,,,0.00,WUHU216HW,2013-08-28 00:05:00,
2013-08-27 19:30:00,84.6,72.0,29.86,North,0,6.9,6.9,66,0.00,,,0.00,WUHU216HW,2013-08-28 00:30:00,
2013-08-27 19:35:00,84.6,72.0,29.86,North,0,6.9,6.9,66,0.00,,,0.00,WUHU216HW,2013-08-28 00:35:00,
2013-08-27 19:36:00,84.6,72.0,29.86,North,0,6.9,6.9,66,0.00,,,0.00,WUHU216HW,2013-08-28 00:36:00,
2013-08-27 20:00:00,82.3,71.0,29.87,NNE,23,4.7,4.7,69,0.00,,,0.00,WUHU216HW,2013-08-28 01:00:00,
2013-08-27 20:05:00,82.3,71.0,29.87,NE,45,4.0,4.7,69,0.00,,,0.00,WUHU216HW,2013-08-28 01:05:00,
2013-08-27 20:30:00,80.8,69.8,29.88,ENE,68,0.0,0.0,69,0.00,,,0.00,WUHU216HW,2013-08-28 01:30:00,
2013-08-27 20:35:00,80.8,69.8,29.88,ENE,68,0.0,0.0,69,0.00,,,0.00,WUHU216HW,2013-08-28 01:35:00,
2013-08-27 20:36:00,80.8,69.8,29.88,ENE,68,0.0,0.0,69,0.00,,,0.00,WUHU216HW,2013-08-28 01:36:00,
2013-08-27 21:00:00,78.7,68.9,29.89,North,0,0.9,0.9,72,0.00,,,0.00,WUHU216HW,2013-08-28 02:00:00,
2013-08-27 21:05:00,78.5,68.7,29.89,NNE,23,1.1,1.1,72,0.00,,,0.00,WUHU216HW,2013-08-28 02:05:00,
2013-08-27 21:06:00,78.5,68.7,29.89,NNE,23,1.1,1.1,72,0.00,,,0.00,WUHU216HW,2013-08-28 02:06:00,
2013-08-27 21:10:00,78.5,68.7,29.89,NNE,23,1.1,1.1,72,0.00,,,0.00,WUHU216HW,2013-08-28 02:10:00,
2013-08-27 21:31:00,77.0,67.8,29.89,ESE,113,0.4,0.4,73,0.00,,,0.00,WUHU216HW,2013-08-28 02:31:00,
2013-08-27 21:36:00,77.0,67.8,29.90,ESE,113,0.4,0.4,73,0.00,,,0.00,WUHU216HW,2013-08-28 02:36:00,
2013-08-27 21:37:00,77.0,67.8,29.90,ESE,113,0.4,0.4,73,0.00,,,0.00,WUHU216HW,2013-08-28 02:37:00,
2013-08-27 21:41:00,77.0,67.8,29.90,ESE,113,0.4,0.4,73,0.00,,,0.00,WUHU216HW,2013-08-28 02:41:00,
2013-08-27 22:00:00,75.4,67.3,29.90,ESE,113,0.0,0.0,76,0.00,,,0.00,WUHU216HW,2013-08-28 03:00:00,
2013-08-27 22:05:00,75.4,67.3,29.90,ESE,113,0.0,0.0,76,0.00,,,0.00,WUHU216HW,2013-08-28 03:05:00,
2013-08-27 22:06:00,75.4,67.3,29.90,ESE,113,0.0,0.0,76,0.00,,,0.00,WUHU216HW,2013-08-28 03:06:00,
2013-08-27 22:30:00,73.6,66.8,29.90,ESE,113,0.0,0.0,79,0.00,,,0.00,WUHU216HW,2013-08-28 03:30:00,
2013-08-27 22:35:00,73.6,66.8,29.90,ESE,113,0.0,0.0,79,0.00,,,0.00,WUHU216HW,2013-08-28 03:35:00,
2013-08-27 22:36:00,73.6,66.8,29.90,ESE,113,0.0,0.0,79,0.00,,,0.00,WUHU216HW,2013-08-28 03:36:00,
2013-08-27 23:00:00,73.8,67.3,29.91,ESE,113,0.0,0.0,80,0.00,,,0.00,WUHU216HW,2013-08-28 04:00:00,
2013-08-27 23:01:00,73.6,67.1,29.91,ESE,113,0.0,0.0,80,0.00,,,0.00,WUHU216HW,2013-08-28 04:01:00,
2013-08-27 23:02:00,73.6,67.1,29.91,ESE,113,0.0,0.0,80,0.00,,,0.00,WUHU216HW,2013-08-28 04:02:00,
2013-08-27 23:06:00,73.6,67.1,29.91,ESE,113,0.0,0.0,80,0.00,,,0.00,WUHU216HW,2013-08-28 04:06:00,
2013-08-27 23:07:00,73.6,67.1,29.91,ESE,113,0.0,0.0,80,0.00,,,0.00,WUHU216HW,2013-08-28 04:07:00,
2013-08-27 23:30:00,73.1,67.0,29.92,North,0,0.0,0.0,81,0.00,,,0.00,WUHU216HW,2013-08-28 04:30:00,
2013-08-27 23:31:00,73.1,67.0,29.92,North,0,0.0,0.0,81,0.00,,,0.00,WUHU216HW,2013-08-28 04:31:00,
2013-08-27 23:35:00,73.1,67.0,29.92,North,0,0.0,0.0,81,0.00,,,0.00,WUHU216HW,2013-08-28 04:35:00,
2013-08-27 23:36:00,73.1,67.0,29.92,North,0,0.0,0.0,81,0.00,,,0.00,WUHU216HW,2013-08-28 04:36:00,